This demonstration page uses our WeatherBlox Daily Observations layout. Learn more.

Left ArrowRight Arrow

Hourly Observations for July 21, 2021

Temp ( °F °C ) Dew Point ( °F °C ) Humidity (%) Winds ( mph kmh ) Pressure ( in mb ) Visibility ( mi km ) Precip ( " mm )
12:53 am 00:53 Clear 75 23.9 56 13.3 52 52 ESE 8 13 29.97 1015 10 16 0.00 0.00
1:53 am 01:53 Mostly Clear 74 23.3 53 11.7 48 48 E 9 15 29.98 1015 10 16 0.00 0.00
2:53 am 02:53 Partly Cloudy 72 22.2 53 11.7 52 52 E 7 11 29.97 1015 10 16 0.00 0.00
3:53 am 03:53 Mostly Cloudy 70 21.1 53 11.7 55 55 Calm 29.98 1015 10 16 0.00 0.00
4:53 am 04:53 Clear 69 20.6 52 11.1 55 55 E 6 9 29.98 1015 10 16 0.00 0.00
5:53 am 05:53 Mostly Cloudy 68 20 53 11.7 59 59 E 6 9 29.98 1015 10 16 0.00 0.00
6:53 am 06:53 Mostly Clear 68 20 55 12.8 63 63 Calm 30.00 1016 10 16 0.00 0.00
7:53 am 07:53 Sunny 69 20.6 57 13.9 66 66 NE 6 9 30.01 1016 10 16 0.00 0.00
8:53 am 08:53 Mostly Sunny 72 22.2 58 14.4 61 61 ENE 6 9 30.02 1017 10 16 0.00 0.00
9:53 am 09:53 Mostly Sunny 76 24.4 60 15.6 58 58 SE 7 11 30.02 1017 10 16 0.00 0.00
10:53 am 10:53 Mostly Sunny 79 26.1 61 16.1 54 54 SE 5 7 30.02 1017 10 16 0.00 0.00
11:53 am 11:53 Sunny 82 27.8 56 13.3 41 41 VRB 5 7 30.02 1017 10 16 0.00 0.00
12:53 pm 12:53 Mostly Sunny 83 28.3 56 13.3 40 40 SE 8 13 30.01 1016 10 16 0.00 0.00
1:53 pm 13:53 Partly Cloudy 86 30 56 13.3 36 36 undefined N/A 29.98 1015 10 16 0.00 0.00
2:53 pm 14:53 Mostly Cloudy 86 30 56 13.3 36 36 undefined N/A 29.97 1015 10 16 0.00 0.00
3:53 pm 15:53 Mostly Cloudy 88 31.1 53 11.7 30 30 ENE 12 19 29.95 1014 10 16 0.00 0.00
4:53 pm 16:53 Sunny 90 32.2 49 9.4 24 24 E 8 13 29.92 1013 10 16 0.00 0.00
5:53 pm 17:53 Sunny 89 31.7 49 9.4 25 25 ESE 10 17 29.91 1013 10 16 0.00 0.00
6:53 pm 18:53 Sunny 89 31.7 50 10 26 26 SE 5 7 29.90 1013 10 16 0.00 0.00
7:53 pm 19:53 Sunny 88 31.1 51 10.6 28 28 SE 7 11 29.89 1012 10 16 0.00 0.00
8:53 pm 20:53 Sunny 85 29.4 51 10.6 31 31 ESE 8 13 29.90 1013 10 16 0.00 0.00
9:53 pm 21:53 Clear 81 27.2 52 11.1 37 37 E 7 11 29.92 1013 10 16 0.00 0.00
10:53 pm 22:53 Clear 80 26.7 52 11.1 38 38 E 10 17 29.94 1014 10 16 0.00 0.00
11:53 pm 23:53 Mostly Cloudy 78 25.6 54 12.2 43 43 E 13 20 29.96 1015 10 16 0.00 0.00

Powered by AerisWeather